Regional Weather Roundup
Issued by NWS

Home | Current Version | Previous Version | Graphics & Text | Print | Product List | Glossary On
Versions: 1 2 3 4 5 6 7 8 9 10 11 12 13 14 15 16 17 18 19 20 21 22 23 24 25 26 27 28 29 30 31 32 33 34 35 36 37 38 39 40 41 42 43 44 45 46 47 48 49 50
000
ASUS43 KDTX 300001
RWRMI
MICHIGAN HOURLY REGIONAL WEATHER ROUNDUP
NATIONAL WEATHER SERVICE DETROIT/PONTIAC MI
800 PM EDT MON JUN 29 2015

NOTE: "FAIR" INDICATES FEW OR NO CLOUDS BELOW 12,000 FEET WITH NO
SIGNIFICANT WEATHER AND/OR OBSTRUCTION TO VISIBILITY.

MIZ047>049-052>055-059>063-066>070-074>076-081>083-300100-
SOUTHEAST LOWER MICHIGAN

CITY           SKY/WX    TMP DP  RH WIND       PRES   REMARKS
ADRIAN         CLOUDY    66  58  75 S7        29.84S
6HR MIN TEMP:  65; 6HR MAX TEMP:  71;

ALMA           SUNNY     73  57  57 S7        29.82S
ANN ARBOR      PTSUNNY   67  57  70 SE6       29.84S
BAD AXE        SUNNY     73  56  55 S10G17    29.84R
6HR MIN TEMP:  73; 6HR MAX TEMP:  80;

CARO           SUNNY     71  59  65 S7        29.83S
DETROIT CITY   SUNNY     69  55  60 S10       29.84S
6HR MIN TEMP:  69; 6HR MAX TEMP:  75;

DETROIT        PTSUNNY   69  57  65 SE8       29.85S
6HR MIN TEMP:  69; 6HR MAX TEMP:  74;

FLINT          MOSUNNY   73  55  53 S7        29.83S
6HR MIN TEMP:  67; 6HR MAX TEMP:  80; 6HR PCP: TRACE;

GROSSE ILE       N/A     68  61  77 S9        29.84R
HILLSDALE      LGT RAIN  64  62  94 CALM      29.84S
6HR MIN TEMP:  64; 6HR MAX TEMP:  72;

HOWELL         MOSUNNY   69  53  57 SE7       29.84R

CITY           SKY/WX    TMP DP  RH WIND       PRES   REMARKS
JACKSON        CLOUDY    66  57  72 S8        29.84S
6HR MIN TEMP:  66; 6HR MAX TEMP:  72;

LAMBERTVILLE   CLOUDY    68  57  68 SE10      29.85R
6HR MIN TEMP:  68; 6HR MAX TEMP:  72;

LANSING        MOSUNNY   71  55  56 SE5       29.83S
6HR MIN TEMP:  71; 6HR MAX TEMP:  77;

LAPEER         FAIR      70  54  56 SE3       29.85S
MASON          MOSUNNY   66  56  71 S3        29.84R
MONROE         CLOUDY    67  57  70 S8        29.84R
6HR MIN TEMP:  67; 6HR MAX TEMP:  72;

MT. CLEMENS    PTSUNNY   68  57  68 SE9       29.84R
6HR MIN TEMP:  68; 6HR MAX TEMP:  77;

PONTIAC        PTSUNNY   69  53  56 SE8       29.83S
6HR MIN TEMP:  69; 6HR MAX TEMP:  72; 6HR PCP: TRACE;

PORT HOPE        N/A     73  56  54 S6        29.81R
6HR MIN TEMP:  67; 6HR MAX TEMP:  75;

PORT HURON     SUNNY     68  57  68 CALM      29.86S
TRI CITIES     SUNNY     74  59  59 S8        29.83R
6HR MIN TEMP:  69; 6HR MAX TEMP:  83; 6HR PCP:  0.03;

MIDLAND        FAIR      74  56  54 S8        29.81S
TROY           MOSUNNY   72  53  50 S6        29.86R
SAGINAW HB     SUNNY     72  57  60 S8        29.82S
$$
MIZ043>046-050>051-056>058-064>065-071>073-077>080-300100-
SOUTHWEST LOWER MICHIGAN

CITY           SKY/WX    TMP DP  RH WIND       PRES   REMARKS
BATTLE CREEK   SUNNY     69  58  67 S8        29.84R
6HR MIN TEMP:  69; 6HR MAX TEMP:  74;

BENTON HARBOR  PTSUNNY   69  60  73 SE8       29.81R
6HR MIN TEMP:  69; 6HR MAX TEMP:  73;

BIG RAPIDS     MOSUNNY   69  57  64 SW3       29.81S
6HR MIN TEMP:  69; 6HR MAX TEMP:  79;

COLDWATER      CLOUDY    64  57  79 SE5       29.84S
6HR MIN TEMP:  64; 6HR MAX TEMP:  71;

FREMONT        PTSUNNY   71  58  62 SW8       29.80S
HOLLAND        MOSUNNY   72  61  68 S8        29.82R
6HR MIN TEMP:  70; 6HR MAX TEMP:  77;

GRAND RAPIDS   MOSUNNY   72  58  61 S10       29.81S
6HR MIN TEMP:  70; 6HR MAX TEMP:  75;

IONIA          FAIR      73  55  53 S8        29.82R
KALAMAZOO      MOSUNNY   68  57  68 S6        29.83S
6HR MIN TEMP:  68; 6HR MAX TEMP:  75;

LUDINGTON      MOSUNNY   71  63  75 SW13      29.81S
6HR MIN TEMP:  71; 6HR MAX TEMP:  76;

MARSHALL       PTSUNNY   66  57  72 S5        29.84R
MOUNT PLEASANT SUNNY     73  57  56 S7        29.81S
6HR MIN TEMP:  73; 6HR MAX TEMP:  81;

MUSKEGON       MOSUNNY   70  60  70 SW7       29.81S
6HR MIN TEMP:  65; 6HR MAX TEMP:  73; 6HR PCP:  0.12;

SOUTH HAVEN    CLOUDY    68  61  79 SE5       29.81S
$$
MIZ016>042-300100-
NORTHERN LOWER MICHIGAN

CITY           SKY/WX    TMP DP  RH WIND       PRES   REMARKS
ALPENA         SUNNY     75  54  47 S12       29.79R
6HR MIN TEMP:  75; 6HR MAX TEMP:  81;

BEAVER ISLAND  SUNNY     68  48  47 SW6       29.78S
6HR MIN TEMP:  68; 6HR MAX TEMP:  77;

BELLAIRE       PTSUNNY   74  52  46 W5        29.79R
6HR MIN TEMP:  74; 6HR MAX TEMP:  82;

CADILLAC       MOSUNNY   69  57  65 SW7       29.82R
CHARLEVOIX     PTSUNNY   66  55  67 W12       29.83R
6HR MIN TEMP:  66; 6HR MAX TEMP:  80;

FRANKFORT      MOSUNNY   71  57  61 SW7       29.80R
GAYLORD        SUNNY     75  51  43 S9        29.80R
6HR MIN TEMP:  75; 6HR MAX TEMP:  80;

GRAYLING       LGT RAIN  72  56  56 S7        29.82R
6HR MIN TEMP:  72; 6HR MAX TEMP:  81;

HARBOR SPRINGS MOSUNNY   74  53  49 SW7       29.78R
HOUGHTON LAKE  SUNNY     72  53  51 SW13      29.82R
6HR MIN TEMP:  72; 6HR MAX TEMP:  80;

MANISTEE       MOSUNNY  N/A N/A N/A SW8       29.80S
OSCODA         SUNNY     74  57  54 S7        29.81R
PELLSTON       SUNNY     76  51  41 NW8       29.79R
6HR MIN TEMP:  76; 6HR MAX TEMP:  82;

ROGERS CITY    PTSUNNY   73  57  59 N3        29.78R
TRAVERSE CITY  PTSUNNY   67  64  90 SE5       29.78S
6HR MIN TEMP:  65; 6HR MAX TEMP:  84; 6HR PCP:  0.38;

$$
MIZ007>008-015-300100-
EASTERN UPPER MICHIGAN

CITY           SKY/WX    TMP DP  RH WIND       PRES   REMARKS
KINROSS        SUNNY     75  46  35 SW5       29.78R
6HR MIN TEMP:  75; 6HR MAX TEMP:  81;

MACKINAC ISLAN SUNNY     73  46  39 CALM      29.78S
6HR MIN TEMP:  73; 6HR MAX TEMP:  75;

NEWBERRY       SUNNY     71  55  56 SW3       29.76S
S. S. MARIE    SUNNY     74  42  31 SW7       29.77R
6HR MIN TEMP:  74; 6HR MAX TEMP:  81;

MUNISING         N/A     61  57  87 CALM      29.74S
6HR MIN TEMP:  61; 6HR MAX TEMP:  82; 6HR PCP:  0.35;

$$
MIZ004>006-011>014-085-300100-
CENTRAL UPPER MICHIGAN

CITY           SKY/WX    TMP DP  RH WIND       PRES   REMARKS
MANISTIQUE     MOSUNNY   66  54  65 S7        29.76S
ESCANABA       CLOUDY    72  57  60 SW8       29.73S
6HR MIN TEMP:  70; 6HR MAX TEMP:  75;

MENOMINEE      CLOUDY    66  61  82 S7        29.75S
6HR MIN TEMP:  66; 6HR MAX TEMP:  79;

SAWYER-GWINN   PTSUNNY   64  61  88 SW8       29.75S
$$
MIZ001>003-009>011-084-300100-
WESTERN UPPER MICHIGAN

CITY           SKY/WX    TMP DP  RH WIND       PRES   REMARKS
IRON MOUNTAIN  LGT RAIN  61  59  93 SW3       29.76R FOG
6HR MIN TEMP:  61; 6HR MAX TEMP:  78;

HOUGHTON       CLOUDY    62  57  83 NW7       29.75R
6HR MIN TEMP:  61; 6HR MAX TEMP:  76;

COPPER HARBOR    N/A     55  53  93 N17       29.75R
6HR MIN TEMP:  55; 6HR MAX TEMP:  65; 6HR PCP:  0.03;

$$

ABBREVIATIONS USED IN REMARKS
   TC - TEMPERATURE IN CELSIUS
  WCI - WIND CHILL INDEX
   HX - HEAT INDEX
  VSB - VISIBILITY



USA.gov is the U.S. government's official web portal to all federal, state and local government web resources and services.